[Iaude] MPEC U89: 2016 UZ40 [a=2.10,e=0.74,i=2.4,H=23.3]

mpec at si.edu mpec at si.edu
Fri Oct 28 23:59:49 EDT 2016


M.P.E.C. 2016-U89                                Issued 2016 Oct. 29, 03:56 UT
 
     The Minor Planet Electronic Circulars contain information on unusual
         minor planets and routine data on comets.  They are published
    on behalf of Division F of the International Astronomical Union by the
          Minor Planet Center, Smithsonian Astrophysical Observatory,
                          Cambridge, MA 02138, U.S.A.

             Prepared using the Tamkin Foundation Computer Network

                              MPC at CFA.HARVARD.EDU
            URL http://www.minorplanetcenter.net/    ISSN 1523-6714


                                   2016 UZ40
 
Observations:
     K16U40Z* C2016 10 26.31041 01 45 45.93 -06 15 28.0          20.3 VqEU089G96
     K16U40Z  C2016 10 26.31472 01 45 44.56 -06 15 51.3          20.6 VqEU089G96
     K16U40Z  C2016 10 26.32328 01 45 41.91 -06 16 36.2          20.4 VqEU089G96
     K16U40Z  C2016 10 26.39559 01 45 19.37 -06 22 52.6          20.4 VqEU089G96
     K16U40Z  C2016 10 26.39677 01 45 19.00 -06 22 58.2          20.1 VqEU089G96
     K16U40Z  C2016 10 26.39793 01 45 18.64 -06 23 04.9          19.9 VqEU089G96
     K16U40Z  C2016 10 26.39909 01 45 18.31 -06 23 09.7          20.6 VqEU089G96
     K16U40Z KC2016 10 26.60108 01 44 18.05 -06 39 53.5                tEU089474
     K16U40Z KC2016 10 26.60463 01 44 17.02 -06 40 12.8          19.2 RtEU089474
     K16U40Z KC2016 10 26.60819 01 44 15.83 -06 40 32.4          20.2 RtEU089474
     K16U40Z  C2016 10 27.22142 01 41 02.81 -07 39 06.9          20.0 VqEU089I52
     K16U40Z  C2016 10 27.22219 01 41 02.59 -07 39 11.8          20.6 VqEU089I52
     K16U40Z  C2016 10 27.22295 01 41 02.32 -07 39 15.8          20.5 VqEU089I52
     K16U40Z  C2016 10 27.22372 01 41 02.03 -07 39 20.5          20.6 VqEU089I52
     K16U40Z  C2016 10 27.35464 01 40 15.05 -07 52 12.8          20.0 RoEU089926
     K16U40Z  C2016 10 27.35905 01 40 13.46 -07 52 38.8          20.1 RoEU089926
     K16U40Z  C2016 10 27.36346 01 40 11.90 -07 53 04.9          20.1 RoEU089926
     K16U40Z  C2016 10 27.42099 01 39 53.477-07 58 41.66         20.7 wLEU089F51
     K16U40Z  C2016 10 27.43535 01 39 48.190-08 00 07.69         20.7 wLEU089F51
     K16U40Z  C2016 10 27.44965 01 39 42.891-08 01 34.07         20.6 wLEU089F51
     K16U40Z KC2016 10 28.24934 01 34 49.51 -09 26 52.6          19.6 RoEU089291
     K16U40Z KC2016 10 28.25046 01 34 49.03 -09 27 00.5          19.2 RoEU089291
     K16U40Z KC2016 10 28.25155 01 34 48.58 -09 27 07.8          19.1 RoEU089291
     K16U40Z  C2016 10 28.25897 01 34 45.46 -09 27 58.8          19.8 VqEU089G96
     K16U40Z  C2016 10 28.26029 01 34 44.90 -09 28 08.0          20.8 VqEU089G96
     K16U40Z  C2016 10 28.26093 01 34 44.57 -09 28 13.1                qEU089G96
     K16U40Z  C2016 10 28.26158 01 34 44.31 -09 28 16.1                qEU089G96
     K16U40Z KC2016 10 28.91498 01 30 12.53 -10 45 45.4          20.2 VSEU089595
     K16U40Z KC2016 10 28.92906 01 30 06.10 -10 47 30.8                SEU089595
 
Observer details:
291 LPL/Spacewatch II.  Observer R. A. Mastaler.  1.8-m f/2.7 reflector + CCD.
474 Mount John Observatory, Lake Tekapo.  Observers A. C. Gilmore,
    P. M. Kilmartin.  Measurer P. M. Kilmartin.  1.0-m f/7.7 reflector + CCD.
595 Farra d'Isonzo.  Observers E. Pettarin, F. Piani.  Measurer E. Pettarin.
    0.61-m f/4.0 reflector + CCD.
926 Tenagra II Observatory.  Observers M. Schwartz, P. R. Holvorcem.  Measurer
    M. Schwartz.  0.81-m f/7 Ritchey-Chretien + CCD.
F51 Pan-STARRS 1, Haleakala.  Observers B. Gibson, T. Goggia, S. Kahale,
    A. Schultz, M. Willman.  Measurers K. Chambers, S. Chastel, L. Denneau,
    H. Flewelling, M. Huber, E. Lilly, E. Magnier, R. Wainscoat, C. Waters,
    R. Weryk.  1.8-m Ritchey-Chretien + CCD.
G96 Mt. Lemmon Survey.  Observers G. J. Leonard, D. C. Fuls.  Measurers
    E. J. Christensen, D. C. Fuls, A. R. Gibbs, A. D. Grauer, J. A. Johnson,
    R. A. Kowalski, S. M. Larson, G. J. Leonard, R. G. Matheny, R. L. Seaman,
    F. C. Shelly.  1.5-m reflector + 10K CCD.
I52 Steward Observatory, Mt. Lemmon Station.  Observer R. A. Kowalski.
    Measurers E. J. Christensen, D. C. Fuls, A. R. Gibbs, A. D. Grauer,
    J. A. Johnson, R. A. Kowalski, S. M. Larson, G. J. Leonard, R. G. Matheny,
    R. L. Seaman, F. C. Shelly.  1.0-m reflector + CCD.
 
Orbital elements:
2016 UZ40                                                Earth MOID = 0.0318 AU
Epoch 2016 July 31.0 TT = JDT 2457600.5                 MPC
M 313.07118              (2000.0)            P               Q
n   0.32405032     Peri.   35.86379     -0.70472450     -0.70830456
a   2.0992351      Node    98.98348     +0.64092061     -0.66025617
e   0.7396234      Incl.    2.36978     +0.30427642     -0.24973274
P   3.04           H   23.3           G   0.15           U   7
Residuals in seconds of arc
161026 G96  0.2-  1.3+    161027 I52  0.4-  0.1+    161028 291  0.3+  0.6+
161026 G96  0.5-  0.3+    161027 I52  0.3+  0.3-    161028 291  0.1+  0.3+
161026 G96  0.2-  0.3-    161027 I52  0.3+  0.1+    161028 291  0.1+  0.4+
161026 G96  0.1+  0.6-    161027 I52  0.1+  0.0     161028 G96  0.5+  0.0
161026 G96  0.0   0.0     161027 926  0.0   0.1-    161028 G96  0.3+  0.2-
161026 G96  0.0   0.7-    161027 926  0.0   0.1+    161028 G96  0.6-  1.0-
161026 G96  0.5+  0.6+    161027 926  0.4+  0.2+    161028 G96  0.5-  0.4+
161026 474  0.7-  0.5+    161027 F51  0.0   0.3-    161028 595  0.5-  0.1+
161026 474  0.8+  0.3+    161027 F51  0.2+  0.0     161028 595  0.2+  0.4-
161026 474  0.0   0.2-    161027 F51  0.1-  0.2-

Ephemeris:
2016 UZ40                a,e,i = 2.10, 0.74, 2                   q = 0.5466
Date    TT    R. A. (2000) Decl.     Delta      r     Elong.  Phase     V
2016 09 29    02 23 28.9 +07 12 55   0.5215  1.4748   149.4    20.2    23.7
...
2016 10 14    02 16 15.8 +03 24 05   0.3089  1.2977   164.5    11.8    22.0
...
2016 10 22    02 01 41.2 -01 25 42   0.2082  1.1989   167.0    10.8    21.0
...
2016 10 28    01 36 25.3 -08 58 32   0.1397  1.1230   156.4    20.7    20.3
2016 10 29    01 29 35.2 -10 55 20   0.1292  1.1102   153.3    23.7    20.2
2016 10 30    01 21 28.6 -13 10 43   0.1190  1.0974   149.7    27.2    20.1
...
2016 11 05    23 32 04.0 -36 23 36   0.07174 1.0199   111.4    64.8    19.9
...
2016 11 13    17 23 10.7 -41 29 41   0.09385 0.9156    36.3   140.2    24.9
...
2016 11 28    15 31 08.3 -22 17 54   0.2666  0.7261    10.5   165.6    33.2

A. U. Tomatic                (C) Copyright 2016 MPC           M.P.E.C. 2016-U89




More information about the Iaude mailing list